Home > Weather > Neubrandenburg > Past weeks

Flag for Germany Past Weather in Neubrandenburg, Mecklenburg-Western Pomerania, Germany — Yesterday and Last 2 Weeks

Now
73 °F

Sunny.


Feels Like: 76 °F
Forecast: 49 / 68 °F
Wind: 9 mph from Southwest

Location: Heringsdorf

Current Time: Jul 2, 2016 at 9:33:16 AM

Latest Report: Jul 2, 2016 at 8:50 AM


Visibility: 10 mi

Pressure: 29.80 "Hg

Humidity: 61%

Dew Point: 59 °F

Location of NeubrandenburgLocation

Past Weather in Neubrandenburg — Graph

°F

Neubrandenburg Temperature Yesterday

Maximum temperature yesterday: 79 °F (at 1:20 PM)
Minimum temperature yesterday: 70 °F (at 8:50 AM)
Average temperature yesterday: 76 °F

High & Low Weather Summary for the Past Weeks

 TemperatureHumidityPressure
High90 °F (Jun 24, 1:20 PM)94% (Jun 17, 8:20 AM)30.24 "Hg (Jun 17, 8:20 AM)
Low57 °F (Jun 17, 3:20 PM)32% (Jun 22, 3:50 PM)29.47 "Hg (Jun 17, 11:20 AM)
Average70 °F61%29.97 "Hg
* Reported Jun 17 8:20 AM — Jul 2 8:20 AM, Neubrandenburg, Weather by CustomWeather, © 2016

Note: Actual official high and low records may vary slightly from our data, if they occured in-between our weather recording intervals... More about our weather records

Advertising

Neubrandenburg Weather History for the Previous 24 Hours

Scroll right to see more
 ConditionsComfort  
Time TempWeatherWind HumidityBarometerVisibility
8:20 AM
Sat, Jul 2
73 °FSunny.9 mph61%29.80 "Hg10 mi
6:50 PM
Fri, Jul 1
75 °FPassing clouds.7 mph57%29.89 "HgN/A
6:20 PM75 °FSunny.8 mph57%29.92 "Hg10 mi
5:50 PM75 °FSunny.13 mph50%29.89 "Hg10 mi
5:20 PM77 °FSunny.9 mph51%29.89 "Hg10 mi
4:50 PM79 °FPassing clouds.9 mph48%29.92 "HgN/A
4:20 PM77 °FSunny.9 mph51%29.92 "Hg10 mi
3:50 PM79 °FPassing clouds.9 mph45%29.92 "HgN/A
3:20 PM79 °FSunny.10 mph45%29.92 "Hg10 mi
2:50 PM79 °FPassing clouds.10 mph45%29.92 "HgN/A
2:20 PM77 °FSunny.10 mph51%29.92 "Hg10 mi
1:50 PM77 °FSunny.12 mph47%29.92 "Hg10 mi
1:20 PM79 °FSunny.14 mph45%29.92 "Hg10 mi
12:50 PM77 °FPassing clouds.13 mph51%29.92 "HgN/A
12:20 PM77 °FPassing clouds.14 mph47%29.92 "HgN/A
11:50 AM75 °FSunny.15 mph50%29.92 "Hg10 mi
11:20 AM75 °FSunny.13 mph54%29.92 "Hg10 mi
10:50 AM75 °FSunny.14 mph57%29.92 "Hg10 mi
10:20 AM73 °FSunny.14 mph57%29.92 "Hg10 mi
9:50 AM72 °FSunny.14 mph61%29.92 "Hg10 mi
9:20 AM72 °FPassing clouds.12 mph61%29.92 "HgN/A
Weather by CustomWeather, © 2016

See weather overviewHow to use our weather pages